Home   Weather   Samara   Past weeks

Flag for Russia Past Weather in Samara, Russia — Yesterday and Last 2 Weeks

Now
16 °F

Passing clouds.


Feels Like: 7 °F
Forecast: 11 / 18 °F
Wind: 6 mph from Southwest

Location: Samara

Current Time: Jan 21, 2017 at 5:25:23 pm

Latest Report: Jan 21, 2017 at 4:30 pm


Visibility: N/A

Pressure: 29.56 "Hg

Humidity: 73%

Dew Point: 9 °F

Location of SamaraLocation

Past Weather in Samara — Graph

°F

Samara Temperature Yesterday

Maximum temperature yesterday: 25 °F (at 7:00 pm)
Minimum temperature yesterday: 16 °F (at 12:00 am)
Average temperature yesterday: 21 °F

High & Low Weather Summary for the Past Weeks

 TemperatureHumidityPressure
High30 °F (Jan 6, 4:00 pm)100% (Jan 6, 4:00 pm)30.54 "Hg (Jan 6, 4:00 pm)
Low-6 °F (Jan 16, 7:30 am)63% (Jan 21, 1:00 pm)29.56 "Hg (Jan 21, 4:00 pm)
Average13 °F88%30.22 "Hg
* Reported Jan 6 4:00 pm — Jan 21 4:00 pm, Samara, Weather by CustomWeather, © 2017

Note: Actual official high and low records may vary slightly from our data, if they occured in-between our weather recording intervals... More about our weather records

Advertising

Samara Weather History for the Previous 24 Hours

Scroll right to see more
 ConditionsComfort  
Time TempWeatherWind HumidityBarometerVisibility
4:00 pm
Sat, Jan 21
18 °FSunny.8 mph73%29.56 "Hg10 mi
3:30 pm21 °FSunny.15 mph63%29.59 "Hg10 mi
3:00 pm18 °FSunny.13 mph73%29.59 "Hg10 mi
2:30 pm19 °FSunny.13 mph63%29.59 "Hg10 mi
2:00 pm19 °FSunny.13 mph68%29.62 "Hg10 mi
1:30 pm19 °FSunny.13 mph63%29.62 "Hg10 mi
1:00 pm19 °FSunny.13 mph63%29.62 "Hg10 mi
12:30 pm18 °FSunny.13 mph73%29.65 "Hg10 mi
12:00 pm18 °FSunny.10 mph73%29.65 "Hg10 mi
11:30 am18 °FSunny.13 mph73%29.68 "Hg10 mi
11:00 am16 °FSunny.13 mph73%29.68 "Hg10 mi
10:30 am14 °FSunny.13 mph79%29.68 "Hg10 mi
10:00 am16 °FSunny.13 mph73%29.68 "Hg10 mi
9:30 am16 °FClear.13 mph73%29.68 "Hg10 mi
9:00 am16 °FClear.8 mph79%29.68 "Hg10 mi
8:30 am16 °FClear.10 mph79%29.68 "Hg10 mi
8:00 am18 °FPassing clouds.8 mph79%29.68 "HgN/A
7:30 am19 °FPassing clouds.10 mph73%29.65 "HgN/A
7:00 am19 °FPassing clouds.10 mph73%29.65 "HgN/A
6:30 am21 °FPassing clouds.13 mph68%29.65 "HgN/A
6:00 am21 °FLight snow. Passing clouds.13 mph80%29.65 "Hg3 mi
5:30 am23 °FLight snow. Passing clouds.10 mph86%29.65 "Hg2 mi
5:00 am23 °FLight snow. Passing clouds.10 mph80%29.65 "Hg3 mi
4:30 am25 °FLight snow. Passing clouds.10 mph74%29.65 "Hg3 mi
4:00 am23 °FLight snow. Passing clouds.10 mph86%29.65 "Hg3 mi
3:30 am23 °FLight snow. Passing clouds.8 mph86%29.65 "Hg3 mi
3:00 am23 °FPassing clouds.8 mph80%29.68 "HgN/A
2:30 am23 °FPassing clouds.8 mph86%29.65 "HgN/A
2:00 am25 °FPassing clouds.10 mph80%29.65 "HgN/A
1:30 am25 °FPassing clouds.10 mph80%29.65 "HgN/A
1:00 am25 °FPassing clouds.10 mph86%29.65 "HgN/A
12:30 am25 °FPassing clouds.10 mph86%29.65 "HgN/A
12:00 am25 °FPassing clouds.10 mph86%29.65 "HgN/A
11:30 pm
Fri, Jan 20
25 °FLight snow. Passing clouds.10 mph86%29.65 "HgN/A
11:00 pm25 °FLight snow. Passing clouds.10 mph86%29.65 "HgN/A
10:30 pm25 °FPassing clouds.13 mph86%29.65 "HgN/A
10:00 pm25 °FLight snow. Passing clouds.13 mph86%29.65 "HgN/A
9:30 pm25 °FLight snow. Passing clouds.13 mph86%29.62 "Hg4 mi
9:00 pm25 °FLight snow. Passing clouds.15 mph86%29.62 "Hg3 mi
8:30 pm25 °FLight snow. Passing clouds.15 mph86%29.62 "HgN/A
8:00 pm25 °FLight snow. Passing clouds.15 mph86%29.62 "Hg6 mi
7:30 pm25 °FLight snow. Passing clouds.17 mph86%29.62 "Hg5 mi
7:00 pm25 °FLight snow. Passing clouds.15 mph86%29.62 "HgN/A
6:30 pm23 °FLight snow. Passing clouds.13 mph93%29.62 "Hg4 mi
6:00 pm23 °FLight snow. Passing clouds.13 mph86%29.62 "HgN/A
5:30 pm21 °FLight snow. Partly sunny.15 mph86%29.62 "HgN/A
5:00 pm21 °FLight snow. Partly sunny.13 mph86%29.62 "HgN/A
Weather by CustomWeather, © 2017

See weather overviewHow to use our weather pages